Minneapolis, MN

3:33 PM CST on February 14, 2016 (GMT -0600)
Minneapolis-Saint Paul International

Weather History for KMSP - September, 2012

Change the Weather History Date:

Wednesday, September 19, 2012

  Actual Average Record
Temperature  
Mean Temperature 64 °F 61 °F  
Max Temperature 76 °F 70 °F 94 °F (1895)
Min Temperature 52 °F 51 °F 33 °F (1991)
Degree Days  
Heating Degree Days 1 6  
Month to date heating degree days 28 66  
Since 1 July heating degree days 32 85  
Cooling Degree Days 0 2  
Month to date cooling degree days 94 56  
Year to date cooling degree days 1129 737  
Growing Degree Days 14 (Base 50)    
Moisture  
Dew Point 38 °F    
Average Humidity 45    
Maximum Humidity 61    
Minimum Humidity 28    
Precipitation  
Precipitation T in 0.09 in 2.98 in (1907)
Month to date precipitation 0.30 1.98  
Year to date precipitation 26.02 24.15  
Snow  
Snow 0.00 in 0.00 in T in (1927)
Month to date snowfall 0.0 0.0  
Since 1 July snowfall T 0.0  
Since 1 September snowfall 0.0 0.0  
Snow Depth 0.00 in    
Sea Level Pressure  
Sea Level Pressure 29.75 in    
Wind  
Wind Speed 12 mph (SW)    
Max Wind Speed 30 mph    
Max Gust Speed 40 mph    
Visibility 10 miles    
Events Rain    
T = Trace of Precipitation, MM = Missing Value Source: NWS Daily Summary

Daily Weather History Graph

Daily Weather History Graph

Search for Another Location

Airport or City:

Trip Planner

Search our weather history database for the weather conditions in past years. The results will help you decide how hot, cold, wet, or windy it might be!

Date:

Astronomy

Sep. 19, 2012 Rise Set
Actual Time 6:56 AM CDT 7:15 PM CDT
Civil Twilight 6:27 AM CDT 7:44 PM CDT
Nautical Twilight 5:53 AM CDT 8:18 PM CDT
Astronomical Twilight 5:17 AM CDT 8:54 PM CDT
Moon 11:21 AM CDT (9/19) 9:10 PM CDT (9/19)
Length of Visible Light 13h 16m
Length of Day
12h 18m
Waxing Crescent, 17% of the Moon is Illuminated
Sep 19
Waxing Crescent
Sep 22
First Quarter
Sep 29
Full
Oct 8
Last Quarter
Oct 15
New

Hourly Weather History & Observations

Time (CDT) Temp. Dew Point Humidity Pressure Visibility Wind Dir Wind Speed Gust Speed Precip Events Conditions
12:53 AM 54.0 °F 32.0 °F 43% 29.88 in 10.0 mi SSE 10.4 mph - N/A   Overcast
1:53 AM 54.0 °F 32.0 °F 43% 29.85 in 10.0 mi SSE 12.7 mph - N/A   Overcast
2:53 AM 54.0 °F 32.0 °F 43% 29.83 in 10.0 mi SSE 9.2 mph - N/A   Overcast
3:53 AM 52.0 °F 33.1 °F 49% 29.81 in 10.0 mi SSE 6.9 mph - N/A   Mostly Cloudy
4:31 AM 51.8 °F 33.8 °F 50% 29.76 in 10.0 mi SSE 10.4 mph - N/A   Mostly Cloudy
4:53 AM 54.0 °F 32.0 °F 43% 29.75 in 10.0 mi South 10.4 mph - N/A   Partly Cloudy
5:53 AM 55.0 °F 33.1 °F 43% 29.73 in 10.0 mi SSE 11.5 mph - N/A   Overcast
6:19 AM 55.4 °F 33.8 °F 44% 29.69 in 10.0 mi SSE 17.3 mph 23.0 mph N/A   Overcast
6:53 AM 57.0 °F 37.0 °F 47% 29.70 in 10.0 mi South 12.7 mph 20.7 mph N/A   Overcast
7:53 AM 57.0 °F 37.9 °F 49% 29.70 in 10.0 mi SSW 11.5 mph 18.4 mph N/A   Mostly Cloudy
8:53 AM 57.9 °F 39.9 °F 51% 29.73 in 10.0 mi SW 8.1 mph - N/A   Mostly Cloudy
9:53 AM 55.9 °F 43.0 °F 62% 29.69 in 10.0 mi South 8.1 mph - 0.00 in Rain Light Rain
10:10 AM 55.4 °F 44.6 °F 67% 29.65 in 10.0 mi SSE 9.2 mph - 0.00 in Rain Light Rain
10:53 AM 57.9 °F 43.0 °F 58% 29.68 in 10.0 mi SW 8.1 mph - 0.00 in   Mostly Cloudy
11:53 AM 66.0 °F 44.1 °F 45% 29.68 in 10.0 mi SW 16.1 mph 20.7 mph N/A   Mostly Cloudy
12:53 PM 66.9 °F 44.1 °F 44% 29.68 in 10.0 mi WSW 10.4 mph - N/A   Mostly Cloudy
1:53 PM 73.0 °F 44.1 °F 35% 29.65 in 10.0 mi WSW 16.1 mph 25.3 mph N/A   Scattered Clouds
2:53 PM 72.0 °F 39.0 °F 30% 29.66 in 10.0 mi WNW 19.6 mph 27.6 mph N/A   Scattered Clouds
3:53 PM 72.0 °F 37.9 °F 29% 29.68 in 10.0 mi WNW 25.3 mph 31.1 mph N/A   Scattered Clouds
4:53 PM 70.0 °F 36.0 °F 29% 29.70 in 10.0 mi WNW 20.7 mph 32.2 mph N/A   Scattered Clouds
5:53 PM 66.9 °F 33.1 °F 28% 29.74 in 10.0 mi WNW 24.2 mph 32.2 mph N/A   Scattered Clouds
6:53 PM 62.1 °F 39.9 °F 44% 29.78 in 10.0 mi NW 13.8 mph 21.9 mph N/A   Partly Cloudy
7:53 PM 60.8 °F 39.2 °F 45% 29.82 in 10.0 mi NW 10.4 mph - N/A   Partly Cloudy
8:53 PM 57.0 °F 41.0 °F 55% 29.85 in 10.0 mi WNW 5.8 mph - N/A   Partly Cloudy
9:53 PM 55.9 °F 41.0 °F 57% 29.85 in 10.0 mi West 5.8 mph - N/A   Partly Cloudy
10:53 PM 55.9 °F 42.1 °F 60% 29.84 in 10.0 mi WSW 6.9 mph - N/A   Clear
11:53 PM 55.0 °F 41.0 °F 59% 29.83 in 10.0 mi West 10.4 mph - N/A   Clear